Regional Weather Roundup
Issued by NWS State College, PA

Home | Current Version | Previous Version | Text Only | Print | Product List | Glossary On
Versions: 1 2 3 4 5 6 7 8 9 10 11 12 13 14 15 16 17 18 19 20 21 22 23 24 25 26 27 28 29 30 31 32 33 34 35 36 37 38 39 40 41 42 43 44 45 46 47 48 49 50
000
ASUS41 KCTP 211210
RWRCTP
NATIONAL WEATHER SERVICE STATE COLLEGE PA
800 AM EDT THU SEP 21 2017

Note: "fair" indicates few or no clouds below 12,000 feet with no
significant weather and/or obstructions to visibility.

* = STATION THAT DOES NOT REPORT PRECIPITATION /E.G. RAIN...SNOW...ETC/
    THUNDER OR FOG.

PAZ002>004-007>009-013>016-020>023-029>032-211300-
WESTERN PENNSYLVANIA

CITY           SKY/WX    TMP DP  RH WIND       PRES   REMARKS
ERIE           CLEAR     63  60  90 CALM      30.11R
MEADVILLE      CLEAR     64  61  90 E3        30.13R
FRANKLIN*      PTCLDY    57  57 100 CALM      30.14S
NEW CASTLE     FOG       61  61 100 CALM      30.13R VSB 3/4
BEAVER COUNTY    N/A     64  63  94 CALM      30.13R FOG
BUTLER*        CLEAR     59  58  96 NE3       30.13R FOG
PITTSBURGH INT PTCLDY    63  62  97 CALM      30.11S FOG
PITTSBURGH     FOG       63  61  93 SE3       30.11S VSB<1/4
INDIANA*       CLEAR     57  57 100 CALM      30.16S
LATROBE        FOG       57  57 100 CALM      30.13S VSB 1
WASHINGTON CO* CLOUDY    57  55  94 CALM      30.12S VSB<1/4
$$

PAZ004>006-010>012-017>019-024>028-033>037-041-042-045-046-049>053-211300-
CENTRAL PENNSYLVANIA

CITY           SKY/WX    TMP DP  RH WIND       PRES   REMARKS
BRADFORD       CLOUDY    51  51 100 CALM      30.16S
DUBOIS         CLEAR     58  56  93 CALM      30.14S FOG
CLEARFIELD     FOG       55  55 100 CALM      30.14S VSB 1/4
JOHNSTOWN      SUNNY     62  60  93 CALM      30.16R FOG
ALTOONA        SUNNY     56  56 100 CALM      30.14R FOG
STATE COLLEGE  MOSUNNY   55  55 100 CALM      30.13R
WILLIAMSPORT   FOG       62  62 100 NW6       30.10S VSB 1/2
SELINSGROVE    MOSUNNY   59  59 100 CALM      30.10F FOG
FT INDIANTOWN  PTSUNNY   68  63  85 CALM      30.07S
CAPITAL CITY   MOSUNNY   66  60  81 W5        30.08R
HARRISBURG     PTSUNNY   68  64  87 NW7       30.07R
YORK           MOSUNNY   61  61 100 CALM      30.08R
$$

PAZ038>040-043-044-047-048-054-055-060>062-067>071-211300-
EASTERN PENNSYLVANIA

CITY           SKY/WX    TMP DP  RH WIND       PRES   REMARKS
SCRANTON       MOSUNNY   63  62  97 SW5       30.11R
MOUNT POCONO   SUNNY     61  61 100 NW7       30.11R
ALLENTOWN      MOSUNNY   65  61  87 SW5       30.06R
QUAKERTOWN*    SUNNY     64  63  94 CALM      30.07S
READING        MOSUNNY   67  65  93 CALM      30.05S
LANCASTER      MOSUNNY   65  63  93 W5        30.07S
COATESVILLE    MOSUNNY   68  63  83 N5        30.08S
POTTSTOWN      MOSUNNY   67  64  90 VRB3      30.07S
BLUE BELL      PTSUNNY   68  63  83 CALM      30.06R
DOYLESTOWN     SUNNY     68  62  81 CALM      30.04S
WILLOW GROVE   NOT AVBL
NORTH PHILA    CLOUDY    72  63  73 NW9       30.05R
PHILADELPHIA   PTSUNNY   73  62  68 N8        30.03S
$$




USA.gov is the U.S. government's official web portal to all federal, state and local government web resources and services.